Location: Launois
(49.6535°N, 4.5395°E)
Time: 19:47:30
(UTC+00:00)

USA 267 - Pass Details

Date: 23 May 2024
Orbit: 1100 x 1107 km, 123.0° (Epoch: 21 May)

Event Time Altitude Azimuth Distance (km) Brightness Sun altitude
Rises 00:15:49 0° 57° (ENE) 3,923 6.8 -19.2°
Reaches altitude 10° 00:18:17 10° 57° (ENE) 2,963 6.1 -19.2°
Maximum altitude 00:24:51 89° 145° (SE) 1,107 3.2 -19.0°
Enters shadow 00:30:21 16° 239° (WSW) 2,551 4.8 -18.8°
